Regional Weather Roundup
Issued by NWS Charleston, SC

Current Version | Previous Version | Text Only | Print | Product List | Glossary Off
Versions: 1 2 3 4 5 6 7 8 9 10 11 12 13 14 15 16 17 18 19 20 21 22 23 24 25 26 27 28 29 30 31 32 33 34 35 36 37 38 39 40 41 42 43 44 45 46 47 48 49 50

000
ASUS42 KCHS 241127
RWRCHS

Regional Weather Roundup
National Weather Service Charleston SC
700 AM EDT TUE APR 24 2018

NOTE: "fair" indicates few or no clouds below 12,000 feet with no
significant weather and/or obstructions to visibility.

Not all stations are quality controlled. Use data with caution,
especially dewpoint observations.

SCZ027-030-031-034>040-042>050-241200-
...Southeast South Carolina...

CITY           SKY/WX    TMP DP  RH WIND       PRES   REMARKS
N Charleston   MOCLDY    67  66  97 S8        29.88S
Waterfront Prk   N/A     68  67  97 SW6       29.73R
Mount Pleasant PTSUNNY   66  66 100 CALM      29.88F FOG
Johns Island   CLOUDY    66  66 100 SW8       29.89R FOG
Pinopolis        N/A     64  64 100 CALM      29.79S
Moncks Corner  CLOUDY    64  63  94 CALM      29.89R FOG
Summerville    CLOUDY    64  64 100 CALM      29.89R FOG
Beaufort MCAS  FAIR      66  66 100 S5        29.87R
Beaufort Arpt  FAIR      63  63 100 S6        29.88R FOG
Hilton Head Is CLEAR     64  64 100 CALM      29.89R
Walterboro     CLOUDY    64  64 100 SE3       29.88S
Allendale      CLOUDY    66  66 100 CALM      29.86R FOG

...Southern Midlands and Pee Dee...

CITY           SKY/WX    TMP DP  RH WIND       PRES   REMARKS
Georgetown     CLOUDY    63  63 100 CALM      29.90R FOG
Kingstree      CLOUDY    63  63 100 E7        29.89R
Orangeburg     CLOUDY    65  64  97 SE5       29.87R FOG
Barnwell       PTSUNNY   66  66 100 S6        29.86R
Aiken          CLOUDY    61  61 100 SE3       29.90R FOG
Manning        CLOUDY    61  61 100 CALM      29.89S
Columbia       CLOUDY    65  65 100 E8        29.86S
Sumter         CLOUDY    63  63 100 E7        29.86S
Florence       CLOUDY    64  63  96 E12       29.90F
Myrtle Beach   MOCLDY    64  62  93 SE6       29.90S
N Myrtle Beach LGT RAIN  63  60  90 SE12      29.91R

$$

GAZ063-065-086>088-099>101-113>116-118-119-134>141-150-241200-
...Southeast Georgia...

CITY           SKY/WX    TMP DP  RH WIND       PRES   REMARKS
Savannah Arpt  MOCLDY    65  63  93 SW6       29.88S
Hunter AAF     FAIR      63  61  93 SW5       29.86R
Fort Stewart   FAIR      62  59  91 SW7       29.87R
Statesboro     FAIR      63  55  74 W3        29.89R
Sylvania       FAIR      63  63 100 CALM      29.88R
Claxton        FAIR      64  62  94 CALM      29.89R

...CSRA, Central and far Southeast Georgia...

CITY           SKY/WX    TMP DP  RH WIND       PRES   REMARKS
Thomson        CLOUDY    62  60  95 W3        29.91R
Augusta-Bush   MOCLDY    62  62 100 CALM      29.85R FOG
Augusta-Daniel FOG       65  64  97 SE3       29.85S VSB 3/4
Swainsboro     PTSUNNY   57  55  94 CALM      29.89R
Vidalia        FAIR      59  57  94 SW6       29.89R
Eastman        FAIR      59  49  70 W3        29.92R
Hazlehurst     FAIR      60  53  78 SW3       29.89R
Alma           FAIR      59  55  87 SW5       29.90R
Waycross       FAIR      58  55  90 W5        29.92R
Jesup          FAIR      61  57  88 CALM      29.90R
Baxley         FAIR      55  55 100 SW3       29.91R
Brunswick      FAIR      61  55  82 SW10      29.92R
Saint Simons   FAIR      63  60  90 W8        29.90R

$$

SCZ027-028-034-036>038-045-046-048>050-GAZ119-141-241200-
...Lake and Supplemental Coastal Observations...

STATION/POSITION TIME  TEMP    WIND        PRES    WAVE   SWELL
                       AIR SEA DIR/SP/G            HT/PER HT/PER/DIR
                 (UTC) (F)     (DEG/KT/KT) (MB)    (FT/S) (FT/S/D)
Winyah Bay       1045   65      90/  1     1012.0S
Lake Murray      1020   63      90/ 11/ 15 1010.5
ACE Basin NERRS  1045   66        CALM       N/A
Fort Pulaski     1100   65 65  190/  1/  2 1012.3
Sapelo Island    1100   63     250/ 14     1012.0

$$

ANZ835-935-AMZ111-154-330-350-352-354-370-450-454-472-241200-
...C-MAN and Buoy Observations...

STATION/POSITION TIME  TEMP    WIND        PRES    WAVE   SWELL
                       AIR SEA DIR/SP/G            HT/PER HT/PER/DIR
                 (UTC) (F)     (DEG/KT/KT) (MB)    (FT/S) (FT/S/D)
Buoy 41004       1110      68  180/ 19/ 25 1011.4
Buoy 41008       1050   66 65  230/ 12/ 16 1012.0R   5/10   5/ 90/10
Folly Beach CMAN 1100   66     210/  6/  7 1012.6R
Capers Nearshore 1108   66     230/  4/  6 1010.1R
Fripp Nearshore  1108   65 64  220/  8/ 12 1011.6R


STATION/POSITION TIME  TEMP    WIND        PRES    WAVE   SWELL
                       AIR SEA DIR/SP/G            HT/PER HT/PER/DIR
                 (UTC) (F)     (DEG/KT/KT) (MB)    (FT/S) (FT/S/D)
5E St. Marys GA  1100      67                N/A     5/ 9   2/100/11
Frying Pan Buoy  1110   70 69  130/ 31/ 43 1012.9
Buoy 41025       1110   68 72  120/ 29/ 35 1020.7
Cape Lookout NC  1100          110/ 25/ 28 1018.7F
Buoy 41002       1110   69 72  120/ 27/ 33 1019.4
Buoy 41010       1110   71 74  160/  4/  6 1014.8
St Augustine FL  1100   66 68  260/  7/  8 1013.5R


$$



USA.gov is the U.S. government's official web portal to all federal, state and local government web resources and services.